Theta_e
293 295 295 297 296 296 295 295 295 294 295 294 291 292 293 290 287 284 291 293 289 291 294 296 297 298 299 298 299 300 300 300 300 300 299 299 299 299 299 299 300 300 299 299 300 300 301 302 303 304 306 308 310 312 316 318 320 322 325 325 325 324 325 328 328 330 331 333 334 334 341 342 341 342 342 342 342 342 342 342 341 341 340 339 336 335 336
294 295 297 297 295 295 295 295 295 296 295 294 294 294 295 294 292 293 294 294 291 293 295 297 298 301 300 300 300 300 299 299 300 299 299 299 299 299 298 299 300 300 300 300 299 300 300 300 301 302 304 306 307 309 313 318 320 323 324 324 324 324 324 328 328 329 329 326 329 332 335 339 339 340 341 342 342 340 341 342 342 341 336 335 338 336 335
291 295 295 295 295 293 292 294 295 296 295 295 295 295 295 295 294 295 295 293 291 296 299 299 300 300 300 299 299 299 300 299 299 299 298 298 299 299 299 299 300 300 301 300 300 299 299 300 301 301 302 304 305 307 310 313 317 321 323 323 324 325 325 326 331 328 326 329 329 327 330 337 339 340 339 337 337 339 339 339 339 339 337 336 337 337 335
288 293 292 291 293 293 292 292 294 295 294 291 293 291 295 292 290 292 291 288 289 296 299 300 301 300 299 297 298 299 299 299 299 299 299 298 299 299 299 299 300 300 300 299 299 299 299 299 300 301 301 302 303 305 308 310 314 319 321 322 323 324 325 326 328 326 325 328 330 329 329 332 337 340 340 338 337 338 338 338 338 339 338 337 337 337 337
287 294 292 292 291 291 286 288 294 296 297 297 297 296 296 296 296 291 287 287 295 297 299 297 298 299 298 298 299 299 300 301 300 299 299 299 299 299 299 299 299 299 299 299 299 299 299 299 299 300 301 301 301 303 306 310 313 316 318 320 322 323 325 325 325 330 330 330 327 327 329 333 333 338 336 338 336 338 338 339 340 338 337 338 338 337 337
286 291 291 292 288 280 283 295 300 298 296 296 291 291 293 297 299 295 296 296 299 298 298 297 296 297 298 299 300 302 301 300 300 300 300 300 300 300 300 300 299 299 299 299 299 299 299 299 299 300 301 301 302 303 306 310 313 315 316 318 320 322 324 324 325 326 330 324 323 324 326 326 327 329 332 331 335 334 335 338 339 339 338 338 338 338 339
286 289 290 285 279 282 294 299 300 299 298 297 295 297 296 298 300 299 298 298 298 299 299 299 299 300 301 302 301 301 302 301 301 300 300 300 300 300 299 299 299 299 298 298 298 297 298 299 299 299 300 301 302 303 305 308 310 311 313 315 318 320 322 324 326 326 326 327 323 323 327 328 328 326 330 333 333 332 336 339 337 336 338 339 339 339 339
290 287 286 276 280 289 295 297 299 301 299 297 296 294 297 299 299 299 297 298 299 299 299 299 301 301 301 301 301 302 302 303 301 300 300 301 300 300 300 300 300 298 297 297 296 297 300 299 298 298 298 300 300 301 304 306 308 311 312 313 315 316 317 318 320 322 325 325 326 323 323 326 328 329 328 329 333 339 338 339 340 341 341 340 338 338 340
284 285 285 284 291 289 293 293 295 296 292 294 293 286 292 300 301 300 298 298 298 298 298 299 300 301 300 298 299 302 303 302 303 302 303 302 301 301 301 302 301 299 298 298 298 298 297 297 297 297 298 299 300 301 303 305 306 308 310 311 311 312 313 314 316 318 319 322 325 327 329 329 328 329 330 330 334 336 333 335 333 336 337 338 339 338 339
289 285 283 284 283 280 286 292 299 301 302 301 299 295 290 300 301 301 299 298 298 298 298 298 299 300 295 294 295 301 303 304 302 303 303 304 304 303 303 303 301 300 299 299 299 298 297 296 297 297 298 299 299 301 302 303 305 306 307 308 309 310 310 312 313 315 317 319 321 325 326 325 328 328 328 329 328 332 335 336 338 338 338 340 341 341 339
288 285 282 281 279 283 291 293 298 300 301 301 301 293 286 297 299 301 300 299 299 298 297 298 299 295 291 292 295 300 302 303 303 302 303 303 304 304 303 301 300 299 299 298 298 298 297 295 296 298 298 299 299 300 301 302 303 304 305 306 307 308 310 311 312 313 315 317 319 321 324 327 328 329 330 330 331 330 330 331 336 338 338 340 338 339 339
287 286 283 281 285 284 291 297 298 300 302 301 298 282 282 293 300 300 301 299 298 299 299 299 297 294 290 290 296 301 303 303 303 303 302 303 303 303 303 302 302 301 299 297 296 296 295 295 296 297 298 298 298 299 300 301 301 301 302 304 306 308 310 311 312 313 314 315 317 319 322 325 329 330 330 331 333 333 332 330 333 335 336 336 337 337 340
287 285 285 286 287 293 298 298 300 300 303 298 285 281 289 298 300 301 301 300 300 300 299 299 294 297 298 299 301 303 303 302 302 303 304 305 304 303 302 302 300 301 299 297 296 297 297 296 295 295 296 296 296 297 298 298 298 299 301 303 304 306 308 309 310 312 313 314 315 317 319 322 325 328 330 330 332 331 333 333 333 331 333 336 336 336 338
286 286 284 284 288 295 300 300 301 302 296 285 285 294 301 301 300 302 301 300 301 300 299 299 298 299 301 302 302 302 301 302 302 302 303 304 304 305 303 302 301 300 299 299 298 298 299 297 295 295 295 294 295 296 296 296 296 299 301 302 303 305 306 308 309 310 312 313 315 316 318 319 323 325 328 330 329 332 332 332 333 333 333 333 334 335 336
288 287 284 283 279 291 301 301 298 300 289 289 298 300 302 302 301 301 302 302 302 301 299 300 300 300 301 301 302 301 302 301 300 300 301 302 302 302 302 302 302 300 299 299 298 299 299 299 296 295 295 294 294 294 294 295 296 298 300 301 302 303 304 305 306 307 309 311 312 315 316 319 320 321 324 327 330 330 330 331 331 331 331 332 332 332 333
285 285 282 282 291 298 303 299 291 297 299 301 303 301 299 301 301 301 301 302 302 302 301 300 299 300 300 300 301 301 301 302 301 301 301 302 302 302 302 302 301 300 300 300 299 299 300 301 298 295 294 293 294 294 294 295 296 298 299 300 300 301 302 302 303 305 306 308 310 312 314 316 318 320 322 324 326 327 328 328 328 327 328 330 330 329 329
289 287 290 296 299 301 303 302 301 302 303 304 305 303 302 300 300 303 301 301 303 303 302 301 300 299 300 300 301 300 300 300 300 300 300 301 301 301 301 301 300 300 299 299 299 300 300 301 299 296 294 293 293 293 294 295 296 296 298 299 299 299 300 300 301 302 303 304 305 308 311 314 316 318 321 323 323 325 326 327 328 327 328 328 328 328 329
297 299 299 301 300 301 301 303 304 303 303 305 305 304 302 302 302 303 302 303 303 303 302 300 300 300 300 300 300 300 300 300 300 300 300 301 301 301 300 300 299 299 300 300 300 300 300 302 300 298 296 294 292 292 294 294 295 296 297 297 297 297 297 298 298 299 299 301 303 306 309 311 314 316 320 322 322 322 322 322 323 323 324 326 328 329 327
291 287 298 298 299 300 301 301 303 304 305 304 305 304 303 303 303 303 305 304 304 303 303 301 300 300 300 300 300 300 299 299 299 299 299 300 300 299 298 299 298 298 299 298 299 299 299 301 300 299 298 295 294 293 293 293 294 295 295 295 295 295 295 296 296 297 296 297 299 302 307 310 313 316 318 320 322 320 321 320 320 322 322 321 324 325 323
290 290 296 299 301 301 302 301 301 301 302 304 305 305 305 305 306 305 304 305 304 303 301 301 300 300 301 299 299 299 299 299 298 298 298 299 299 299 298 298 297 298 298 298 298 298 298 300 300 299 298 296 295 294 294 294 294 294 295 294 294 294 295 295 295 295 295 293 295 297 300 306 310 315 318 320 320 320 320 320 319 318 320 320 322 324 326
294 297 298 298 299 300 300 301 303 303 303 303 303 305 305 305 304 304 305 305 303 303 302 302 301 300 300 300 299 299 298 298 298 298 298 298 299 298 297 297 296 296 297 298 298 298 298 300 300 299 298 297 295 294 294 294 294 294 294 293 294 295 294 293 293 294 295 296 297 298 301 304 309 307 305 315 321 315 300 302 308 317 324 322 318 323 327
289 291 294 297 291 290 297 301 302 303 304 304 303 304 304 304 303 303 303 303 304 303 302 302 301 299 299 299 299 298 298 298 299 298 297 297 298 297 297 296 297 297 298 298 298 298 298 299 299 299 298 297 296 295 294 293 293 294 293 293 293 293 293 293 293 293 294 295 297 298 300 304 304 298 291 291 298 307 299 292 290 290 293 298 299 308 319
289 296 298 299 298 297 298 300 303 304 304 304 303 303 303 303 304 303 303 302 302 302 302 302 301 300 299 299 299 298 298 298 299 298 297 296 296 295 295 295 296 297 297 297 297 297 298 298 299 298 297 297 296 295 294 293 292 293 293 292 292 291 291 291 292 293 294 299 299 299 301 305 305 301 299 296 291 291 292 292 291 291 291 291 290 291 298
298 300 300 301 299 296 300 302 303 304 305 304 303 304 304 304 303 304 303 302 301 300 300 301 301 300 299 299 299 298 298 299 299 298 297 297 296 295 296 296 296 296 296 296 296 296 297 298 298 298 297 296 295 294 294 293 292 293 292 292 291 291 291 292 292 292 294 298 301 301 304 309 305 303 301 299 297 292 291 291 291 291 291 291 290 290 290
297 301 301 302 301 301 302 302 303 304 305 305 304 303 304 304 304 304 302 302 302 300 299 299 301 300 298 299 299 298 298 298 298 296 296 295 295 295 296 295 295 295 295 296 296 296 297 297 297 297 296 295 294 293 293 293 292 293 292 292 291 291 291 291 292 292 292 295 296 297 299 302 305 306 305 303 300 298 295 292 291 291 291 291 291 291 290
302 302 302 303 303 302 303 302 302 303 304 305 304 305 305 305 304 303 302 302 301 301 300 300 299 300 299 298 298 299 298 298 296 295 298 296 296 295 294 294 295 295 295 295 296 296 296 296 297 296 295 295 294 293 293 293 293 294 292 292 291 290 290 291 291 292 292 292 293 294 296 296 295 295 295 298 300 300 299 299 298 295 292 291 291 291 290
304 304 302 300 300 300 302 300 299 304 305 305 305 305 306 305 302 302 303 302 301 301 300 300 299 299 299 299 297 298 297 296 297 298 297 295 294 293 294 294 295 295 295 295 295 294 292 295 296 296 296 296 295 294 293 293 294 294 293 291 291 289 287 289 292 292 292 292 292 292 292 292 292 292 292 292 292 292 293 293 292 292 293 294 291 290 291
303 303 303 298 297 299 301 304 304 304 305 304 304 304 305 304 302 301 300 300 300 300 300 300 299 299 298 298 298 297 298 297 296 296 296 294 293 293 293 294 294 295 294 294 295 295 294 295 296 296 296 296 295 295 295 294 294 294 293 292 290 290 291 290 291 291 291 291 291 291 291 292 291 291 290 291 290 290 290 289 289 290 290 291 292 291 290
303 303 304 303 303 303 304 306 305 304 303 304 305 305 304 302 301 300 300 300 300 299 299 299 299 298 298 298 297 296 296 296 296 295 294 294 293 292 293 293 294 294 294 294 294 294 294 295 295 295 295 295 295 295 295 295 294 293 293 291 290 290 289 290 290 290 290 290 291 290 288 289 291 291 290 290 289 289 288 288 288 288 288 288 289 290 290
304 304 303 303 303 303 303 302 301 302 302 303 303 303 303 301 300 299 300 300 299 298 299 299 299 298 298 297 297 296 295 295 295 295 294 293 292 292 292 292 293 293 293 293 293 293 293 294 294 294 294 295 295 296 295 295 294 294 293 292 290 289 289 289 290 290 290 289 289 287 289 289 290 290 289 289 289 288 287 286 286 286 286 286 286 285 286
304 304 304 304 303 303 302 301 302 302 303 303 302 302 301 301 300 300 300 300 299 298 299 298 298 298 297 297 297 297 296 296 295 294 293 292 292 291 291 291 290 289 290 291 292 292 292 293 294 293 294 295 295 295 295 294 294 294 293 292 292 288 286 286 287 289 289 288 288 288 288 288 288 287 287 287 287 287 286 286 285 285 285 285 285 284 284
303 303 302 302 302 302 302 302 301 302 302 302 301 301 301 300 299 299 300 299 299 299 298 298 297 297 298 297 297 296 295 295 294 293 292 292 291 291 291 291 290 288 291 291 291 292 292 292 292 292 293 294 295 295 295 294 295 295 294 290 291 291 288 286 288 288 288 287 287 287 287 287 287 287 286 286 286 286 286 285 284 284 284 283 283 283 284
302 301 300 301 301 301 301 301 301 301 302 301 301 302 302 302 301 300 300 300 299 298 298 298 298 298 298 297 296 296 295 294 294 292 291 291 290 290 291 290 291 291 290 290 291 291 291 291 291 292 292 294 294 295 294 294 295 295 294 294 293 293 289 287 287 289 288 288 287 286 286 286 287 287 286 286 286 285 286 285 285 284 284 284 283 284 284
302 301 302 303 303 301 301 301 302 302 302 303 303 302 302 301 301 300 300 299 299 298 297 298 299 298 297 297 296 295 294 293 292 291 291 290 290 290 290 291 291 291 291 290 290 291 291 291 290 290 291 293 293 294 292 292 294 295 295 295 294 296 292 290 289 289 288 287 288 287 287 286 286 285 285 286 285 285 285 284 284 284 284 284 284 284 284
306 305 305 305 305 305 305 304 303 302 302 301 301 302 302 301 301 300 299 299 298 297 297 298 298 297 296 296 295 294 293 291 291 291 291 290 290 290 290 290 290 291 290 290 289 290 290 290 289 288 289 292 293 293 291 290 293 295 295 295 294 295 296 294 292 290 289 289 289 288 287 286 286 285 285 285 285 285 285 284 284 283 283 283 283 284 283
306 305 304 304 304 305 305 304 304 304 303 302 302 302 301 301 300 300 298 298 298 297 296 296 296 296 296 295 294 294 292 292 291 291 291 290 290 290 290 289 289 289 289 289 289 290 290 289 284 283 288 291 291 292 289 287 291 294 295 294 293 293 294 294 295 293 292 292 290 290 289 287 286 286 285 285 284 284 284 284 284 283 283 282 282 282 282
306 305 304 304 304 305 305 304 304 304 303 303 302 301 301 301 300 301 300 299 297 296 295 296 296 295 295 295 295 294 293 292 291 290 290 290 290 290 289 289 288 288 288 287 287 289 289 288 284 283 288 291 290 291 288 284 288 292 294 294 294 293 292 292 293 296 295 294 294 293 291 291 291 289 288 288 286 285 285 284 283 283 283 283 282 282 281
305 305 304 304 304 305 304 305 305 304 303 303 302 301 300 301 300 300 299 298 296 295 295 295 295 295 296 295 294 293 292 291 291 290 290 290 289 289 288 288 287 287 286 286 288 289 287 285 284 287 290 289 289 290 288 284 283 291 293 292 292 292 291 291 291 290 292 294 292 293 294 294 292 292 291 290 288 287 286 286 285 285 285 284 284 283 282
304 304 304 305 305 304 304 304 304 304 303 302 301 301 301 301 301 299 298 296 296 295 295 294 295 295 294 293 293 292 292 291 291 290 290 289 289 289 287 287 287 287 286 286 288 288 286 285 287 289 288 288 288 289 287 284 284 290 291 292 292 291 291 290 290 290 289 289 289 289 289 290 293 292 289 290 290 289 287 286 286 286 285 285 284 284 283
304 304 304 303 302 302 303 303 303 303 303 303 301 300 300 300 299 298 297 296 295 294 294 295 294 293 293 293 292 292 292 291 291 290 289 289 289 289 289 288 288 288 286 284 287 287 284 283 286 289 288 288 287 286 287 285 286 289 290 289 289 289 289 288 289 289 289 289 288 286 288 287 286 287 286 287 287 286 286 288 291 289 287 286 286 284 282
304 303 303 303 302 303 302 302 302 302 302 302 301 301 301 299 298 297 296 295 295 294 295 294 294 293 293 293 293 293 292 291 290 290 289 289 289 288 288 287 288 288 287 286 286 286 285 285 285 286 287 287 287 283 286 286 288 289 288 288 288 288 287 287 287 287 287 287 286 287 286 287 286 286 285 285 285 285 285 285 285 285 286 286 286 284 283
303 303 303 303 303 303 303 303 302 301 301 302 301 301 300 299 298 297 297 296 295 295 294 294 291 294 294 293 293 292 291 291 290 290 289 289 288 288 288 287 288 287 283 284 286 286 288 288 286 284 284 285 285 283 281 286 288 288 288 287 286 286 286 286 286 286 286 287 286 286 286 286 285 285 285 285 284 284 284 284 284 284 284 284 283 283 283
303 303 302 302 302 302 302 301 301 301 301 301 301 300 299 299 298 298 297 296 295 295 294 294 292 290 292 293 292 290 290 290 290 290 289 289 289 289 288 288 289 286 281 285 287 288 287 287 286 284 280 281 282 280 282 287 288 287 287 286 285 286 285 285 285 285 285 285 285 285 285 285 285 284 283 284 283 283 283 283 282 282 283 283 283 283 283
303 303 303 303 302 301 301 301 300 300 300 300 300 300 299 299 298 297 296 296 295 294 294 294 293 292 292 293 291 290 290 290 290 289 289 288 288 288 289 289 288 284 281 285 287 286 286 285 284 280 280 279 280 280 285 287 287 287 286 286 285 285 285 285 285 284 284 284 284 284 284 283 283 283 283 282 282 282 282 282 282 282 282 282 283 282 282
303 303 303 303 303 302 301 300 300 300 300 300 300 299 299 298 298 298 297 296 295 294 294 294 293 293 293 292 292 291 291 291 291 290 288 288 288 288 288 284 286 286 284 282 286 286 285 283 280 278 279 279 280 280 286 287 286 286 286 285 285 285 284 284 284 284 284 284 284 283 284 284 283 283 283 281 280 281 280 281 281 281 281 281 280 281 281
303 303 303 296 302 302 302 302 302 302 301 299 298 298 298 298 298 298 298 297 296 295 295 294 294 294 293 293 292 292 291 291 291 291 291 290 289 289 288 286 286 283 281 281 287 287 284 277 277 278 278 279 279 285 286 286 286 286 286 285 285 284 284 284 284 284 283 283 283 283 283 284 283 283 282 282 281 281 280 279 280 281 281 281 280 280 280
303 303 303 303 302 302 301 302 302 301 301 299 297 296 297 298 298 298 298 297 297 296 296 295 295 294 294 294 292 291 289 289 289 290 290 290 287 286 284 283 282 281 282 286 286 285 283 281 280 278 278 279 279 286 286 286 285 285 285 284 284 284 284 284 284 284 283 283 282 282 281 282 283 283 282 282 281 281 280 280 280 280 280 280 280 280 280
302 302 302 302 301 301 301 301 300 300 299 298 298 298 298 299 298 298 298 298 297 297 296 296 295 295 294 294 293 293 292 291 288 288 290 290 289 288 287 288 285 282 280 280 280 279 277 278 277 278 278 279 284 286 286 285 285 285 284 284 284 283 284 284 284 284 283 282 283 283 283 283 283 282 281 281 281 281 280 280 279 279 280 280 280 280 280
302 302 302 302 301 301 300 299 298 297 299 299 298 299 300 299 298 298 298 297 297 296 296 295 295 294 294 293 292 293 292 291 290 289 290 290 289 288 287 283 280 279 282 286 286 284 279 277 277 278 278 280 285 285 285 284 284 283 283 283 283 282 282 282 282 283 282 282 282 282 282 281 282 281 281 280 280 280 280 280 279 279 279 279 279 279 279
301 301 301 300 300 300 299 298 298 299 300 300 299 300 300 299 297 297 297 297 297 294 296 296 295 294 293 292 292 292 291 290 289 289 289 289 289 289 287 286 285 282 282 286 286 284 279 276 278 279 281 286 285 284 285 284 283 282 283 282 282 282 279 279 279 279 281 282 282 281 281 281 281 279 280 280 279 279 279 279 279 277 276 278 278 279 279
300 298 299 298 299 300 301 301 300 300 301 300 301 301 299 298 297 296 297 296 296 294 294 294 294 293 292 292 292 292 291 290 289 287 288 288 288 286 285 286 284 283 284 284 286 286 286 286 285 283 283 284 284 283 283 283 283 282 281 282 282 282 281 281 281 281 281 281 281 281 281 281 281 281 281 280 279 279 279 278 279 279 279 279 279 280 279
300 299 299 299 300 301 301 301 302 302 302 301 301 300 299 298 297 297 297 291 296 295 295 294 292 293 293 292 291 291 291 290 289 287 287 287 287 286 284 283 285 283 283 285 286 286 285 283 280 279 280 284 284 283 280 279 282 282 282 281 281 281 280 281 281 281 281 281 281 281 280 280 281 280 280 280 279 279 279 279 279 279 278 279 279 278 279
Wind_Speed
6 10 11 9 8 8 8 8 8 8 7 7 8 9 10 5 7 10 12 11 9 12 12 11 11 12 12 13 13 13 12 12 15 17 17 17 18 18 19 19 17 17 19 19 20 19 19 19 18 18 16 16 15 15 16 14 12 12 11 10 11 10 8 7 13 11 9 10 11 17 18 18 17 17 19 19 18 15 15 17 16 16 13 11 11 11 12
11 10 9 7 8 7 8 9 10 9 10 10 8 9 9 10 11 12 14 14 14 11 9 10 10 10 11 12 12 12 12 13 15 17 17 18 19 19 19 18 17 17 18 17 19 19 20 19 18 17 16 16 16 16 17 15 13 12 12 12 11 11 9 7 11 12 8 7 9 13 17 16 17 15 13 12 14 15 18 17 16 12 13 13 11 12 12
10 4 2 5 7 7 10 10 11 11 12 11 9 9 9 9 12 13 14 14 13 6 3 8 10 10 10 11 13 13 12 12 15 16 17 18 19 19 19 18 18 17 18 19 19 19 19 20 18 16 16 16 16 15 15 16 15 13 13 13 12 12 11 8 8 6 7 11 12 12 13 14 16 17 17 15 15 18 18 17 18 15 13 15 16 15 16
8 2 3 5 6 9 13 14 12 12 13 12 11 9 7 7 9 10 10 10 8 6 8 10 10 11 12 13 13 13 11 12 13 16 18 18 19 19 20 19 18 18 18 19 20 20 19 18 19 16 16 16 15 15 15 15 14 14 13 13 13 12 13 10 6 8 11 13 11 14 16 16 14 15 14 11 14 18 17 17 17 16 17 17 14 14 12
8 2 2 5 9 10 11 11 12 14 12 10 8 8 7 8 8 8 8 7 7 8 10 13 13 13 14 14 13 13 12 12 12 15 17 17 18 19 19 19 18 17 17 17 18 20 17 16 16 17 16 15 15 15 15 15 13 13 12 12 12 13 13 11 10 3 10 11 13 12 10 12 14 14 16 15 15 15 17 17 14 19 21 20 20 16 14
7 8 7 7 8 9 6 3 4 5 8 9 8 8 7 7 8 7 6 8 8 9 10 12 14 14 13 13 12 9 8 11 13 14 16 16 17 18 18 18 18 17 14 14 15 17 17 16 16 16 15 15 14 15 14 14 13 12 12 12 12 13 13 12 10 9 4 7 9 12 11 10 11 15 14 15 15 15 18 17 15 16 17 18 19 20 17
8 6 8 8 10 7 5 2 4 2 2 5 8 9 9 9 9 11 12 10 9 9 9 11 12 12 13 12 12 7 9 10 12 14 15 16 17 18 18 19 19 18 15 16 16 16 16 17 16 15 15 14 15 14 14 13 12 11 11 12 12 12 12 13 13 11 8 5 8 10 9 10 11 13 17 14 16 17 16 14 15 18 17 18 17 17 18
6 7 5 3 3 2 6 4 3 3 2 2 4 9 12 12 10 9 9 8 8 9 10 11 11 11 13 12 7 4 9 12 12 14 14 16 17 18 17 18 19 17 17 16 17 16 15 15 15 15 14 14 14 14 13 11 11 11 11 11 11 12 12 13 13 14 12 10 5 11 12 12 12 14 14 14 15 11 8 9 11 13 14 13 15 17 18
7 7 8 10 12 13 8 5 6 7 3 5 5 6 7 3 6 6 6 7 8 9 10 11 11 12 12 11 4 6 10 12 12 13 15 15 16 16 16 15 15 14 15 16 17 16 15 14 14 14 14 14 14 13 12 11 11 11 11 11 11 12 12 12 13 12 13 12 12 8 8 10 11 11 12 13 14 10 13 14 13 14 12 15 16 17 17
3 8 10 9 9 10 1 3 2 4 2 1 1 5 9 5 5 6 6 7 8 9 9 10 11 12 11 8 6 10 12 12 12 14 15 15 15 16 16 14 13 14 14 14 15 15 17 16 15 15 15 14 13 11 11 12 12 11 10 11 12 13 13 13 13 13 12 12 12 12 11 9 8 11 11 9 11 10 11 12 13 13 14 12 12 12 15
6 7 8 8 8 7 3 4 4 4 3 2 3 3 7 5 4 4 4 7 8 8 8 10 10 10 9 9 9 10 13 14 13 13 14 16 15 15 14 13 14 15 14 14 15 16 17 18 17 18 17 16 13 11 11 11 12 12 11 11 12 13 14 13 13 12 11 11 11 11 12 12 10 9 8 10 11 10 10 12 12 11 12 10 11 11 13
9 10 10 10 3 5 2 4 5 5 3 4 4 6 2 5 2 2 4 6 7 8 9 9 9 9 8 9 10 12 14 13 13 13 15 16 16 15 14 12 13 13 13 13 14 16 17 18 18 17 16 14 13 12 12 10 11 13 14 13 13 13 13 13 13 12 11 11 11 11 11 12 11 10 9 9 8 8 9 11 11 10 11 12 15 14 13
11 10 10 9 7 7 10 7 4 4 5 3 6 8 3 3 3 2 3 6 7 7 9 8 8 8 8 11 12 12 12 13 13 13 14 15 15 15 13 12 14 12 13 12 13 16 13 12 16 15 14 14 14 13 12 12 12 12 13 14 14 13 13 12 13 13 11 11 12 12 11 11 11 11 10 9 9 9 8 9 10 11 13 13 12 13 13
11 10 11 10 10 6 4 6 8 6 5 6 5 4 2 4 2 2 4 6 6 7 8 7 8 9 11 11 11 12 12 12 13 13 14 15 15 13 11 12 13 13 13 13 14 14 15 14 15 14 14 15 15 15 14 15 15 13 12 12 13 14 14 13 13 13 13 12 11 10 10 10 11 11 11 10 10 9 8 8 10 11 11 11 11 12 11
8 8 10 10 11 3 8 11 7 6 5 1 2 6 3 2 4 4 4 4 5 6 8 8 9 11 11 11 11 12 12 13 13 14 15 15 16 16 15 14 14 14 13 14 14 15 15 15 13 14 16 16 17 16 16 16 15 15 15 14 13 12 12 13 13 13 13 14 13 10 10 10 11 12 11 11 11 10 10 9 9 9 9 9 10 11 9
8 8 8 6 3 5 13 12 4 7 10 8 8 6 6 2 4 5 5 5 5 6 7 8 9 10 11 10 10 12 12 12 12 13 13 14 14 13 12 12 13 15 13 13 14 13 15 15 12 12 14 16 17 18 17 16 14 14 15 16 15 13 12 12 12 12 13 13 13 12 12 11 12 12 12 11 11 10 10 10 9 9 8 9 9 11 12
6 7 8 5 5 8 11 9 5 6 5 7 7 7 6 6 4 3 5 5 5 6 8 9 10 10 9 11 10 11 12 12 12 13 13 13 13 13 12 12 13 13 13 15 14 15 13 17 12 12 11 14 18 17 17 16 16 17 18 18 17 15 14 14 14 13 13 12 13 13 12 12 12 11 12 12 11 11 10 10 9 9 9 10 10 11 11
10 14 14 12 9 8 9 10 7 9 7 6 6 7 7 5 5 4 5 5 5 7 8 9 9 9 10 11 10 11 11 11 12 12 12 12 12 12 12 12 13 13 13 13 15 16 16 16 14 11 11 12 15 16 15 15 16 16 17 17 18 17 16 15 16 16 15 14 14 14 14 12 12 11 11 10 10 10 10 10 10 10 10 10 9 9 10
9 8 4 9 12 12 12 10 9 8 8 8 6 7 7 6 5 5 4 5 5 6 8 8 9 10 10 10 10 10 10 11 12 12 12 12 11 10 12 12 13 12 12 13 15 17 16 16 14 13 13 12 12 14 15 14 15 16 16 16 17 17 18 19 19 17 16 13 12 12 13 11 11 12 11 11 11 10 9 9 10 11 11 12 10 10 10
12 13 13 11 6 5 5 6 7 9 8 9 8 7 6 5 4 5 4 2 5 6 8 9 10 9 8 9 9 10 10 11 11 11 12 11 10 10 10 11 12 12 12 13 15 16 15 15 14 13 13 12 13 15 14 14 14 17 16 16 16 17 19 19 17 16 16 16 16 12 12 13 11 11 11 11 10 8 6 6 8 10 11 12 11 10 8
13 15 15 14 14 16 17 16 12 9 7 6 6 7 7 6 6 5 4 3 5 4 6 6 7 8 8 7 9 9 10 10 10 10 10 10 9 9 10 11 11 11 12 12 13 14 14 14 14 13 13 12 13 14 14 14 15 16 17 18 16 18 19 18 19 17 16 16 15 12 12 13 10 4 6 4 4 4 10 6 6 5 5 6 8 8 6
12 11 10 8 8 7 8 6 4 4 4 6 6 6 7 7 6 5 5 4 3 5 5 6 6 7 7 7 8 9 9 9 10 9 9 9 10 10 9 9 10 11 12 12 13 13 13 14 14 14 13 12 13 13 14 13 14 15 16 16 16 17 15 17 17 17 16 16 12 12 13 13 7 11 17 18 13 8 8 13 20 19 15 8 7 7 7
11 10 9 8 10 12 12 10 7 6 5 6 7 7 7 6 6 4 5 5 6 6 5 3 5 6 6 7 8 9 8 9 8 8 7 8 8 9 10 10 11 12 12 12 12 13 13 13 14 14 14 13 14 14 14 14 13 14 15 16 15 15 17 15 15 14 16 13 4 9 12 11 10 11 11 14 19 18 19 19 20 21 20 20 21 20 12
16 15 14 13 12 13 10 9 5 5 5 7 8 7 6 6 5 5 5 5 4 5 4 3 3 4 5 7 8 8 8 8 8 7 7 7 6 8 8 9 11 12 12 13 12 13 12 13 13 14 14 13 14 14 14 14 13 14 15 15 15 15 14 13 15 16 13 13 4 6 10 8 12 12 12 13 13 17 21 22 22 22 20 21 21 21 21
10 8 9 9 10 11 11 9 7 6 6 6 7 7 6 5 5 6 5 4 3 3 4 5 3 3 4 6 7 7 7 7 7 7 7 5 6 7 8 9 10 11 10 11 11 11 12 13 14 13 13 13 14 14 15 15 14 15 16 16 17 17 14 14 14 16 15 13 13 13 11 10 8 10 11 11 11 10 12 18 23 23 23 21 20 20 21
11 10 10 9 8 9 8 7 9 8 7 8 8 7 5 6 6 6 5 3 2 2 3 4 3 2 3 5 5 7 7 7 7 6 6 6 7 7 9 9 9 9 9 10 10 11 12 14 13 12 12 13 13 14 14 14 14 15 15 14 15 13 14 16 14 13 15 13 13 12 12 12 13 13 12 11 9 8 7 7 9 14 19 22 20 17 20
10 9 9 9 10 10 10 10 8 6 8 9 9 7 8 7 8 6 4 3 2 2 3 3 2 2 4 3 4 4 4 5 7 5 6 5 7 7 8 8 9 9 9 9 10 11 13 12 12 12 12 13 13 13 13 13 13 15 15 15 15 16 20 18 13 11 10 12 13 11 13 14 13 13 12 11 11 10 10 9 10 11 10 11 15 19 16
9 8 8 10 9 8 8 10 11 6 6 8 8 8 8 8 8 7 6 5 4 3 2 2 3 3 4 2 4 4 4 5 5 5 5 5 6 6 7 8 8 8 8 9 9 10 11 12 12 12 13 14 14 14 13 13 12 13 15 15 16 16 15 17 15 12 12 12 11 11 11 11 12 12 12 11 11 10 9 10 11 10 10 10 9 12 15
9 8 8 10 12 11 6 2 4 6 7 8 8 8 9 9 9 7 7 6 3 3 4 3 3 3 2 2 3 4 3 4 5 6 5 5 5 6 7 7 7 6 7 8 9 10 11 11 12 12 13 14 14 14 13 13 11 11 13 14 15 15 15 15 13 11 11 12 12 13 12 12 11 11 12 11 10 11 10 12 12 12 11 11 11 11 13
9 7 7 8 9 10 10 10 10 9 8 9 10 10 10 10 8 8 6 5 5 4 3 3 4 3 1 2 2 3 4 4 4 4 4 5 5 6 6 7 6 5 5 7 9 10 11 11 12 12 12 13 14 14 14 12 10 11 11 12 13 14 14 15 14 13 13 12 12 15 13 12 11 10 10 10 10 10 9 11 11 11 13 12 13 14 13
6 6 7 7 8 8 11 12 9 8 9 11 11 11 11 10 9 7 7 5 5 4 3 4 3 3 3 2 2 3 3 3 3 3 3 4 5 5 5 6 6 6 7 8 9 9 10 11 10 11 12 13 13 14 13 12 10 9 9 9 9 12 16 16 13 13 11 11 11 12 11 12 11 11 11 9 10 10 9 7 11 13 12 13 14 13 12
8 8 9 9 8 9 10 9 9 9 10 11 12 12 12 11 10 9 6 6 5 4 4 4 5 5 3 1 2 3 3 2 2 2 3 3 4 4 5 4 4 5 6 7 8 8 9 10 11 12 12 12 13 13 12 12 10 9 9 8 9 11 12 15 12 12 11 11 11 12 11 9 10 10 11 12 11 9 7 8 11 12 13 14 14 13 12
11 10 10 10 10 10 10 9 10 11 12 13 12 11 10 9 7 6 6 5 4 4 4 5 4 3 3 2 2 2 3 3 1 1 3 3 4 4 4 4 3 4 5 6 7 7 8 10 11 12 12 12 12 12 12 12 10 9 8 9 8 10 9 9 10 10 12 13 13 12 11 11 10 11 10 10 9 9 8 10 11 12 12 12 12 11 11
13 12 11 10 10 10 11 11 10 10 10 10 10 10 9 9 8 6 5 5 4 4 4 4 4 4 4 3 2 2 3 3 2 1 3 3 4 4 3 3 3 3 3 6 7 6 7 8 10 11 11 11 11 11 12 12 10 8 9 8 8 10 9 9 11 11 11 12 11 11 11 12 12 11 10 10 11 12 13 12 12 12 11 12 12 11 15
13 14 13 12 11 11 10 9 10 11 11 11 11 10 9 8 8 7 5 5 5 4 4 4 4 5 4 3 2 1 2 2 2 2 2 2 3 4 3 3 3 2 2 5 7 7 7 8 10 11 12 10 10 10 11 12 10 8 9 7 7 7 9 10 11 11 11 10 11 11 11 11 11 10 11 11 11 11 12 12 11 12 11 11 9 9 11
12 12 11 10 11 11 11 10 10 11 11 11 11 11 10 9 9 8 8 7 4 5 5 5 5 5 4 4 3 2 1 1 1 1 1 2 2 3 3 3 4 3 3 4 7 7 8 7 11 13 11 7 8 9 12 13 10 8 7 7 7 6 7 8 10 10 10 10 10 10 11 11 11 11 11 11 11 12 11 12 11 11 11 11 10 9 9
10 10 9 9 9 10 10 9 9 10 10 10 11 11 10 10 10 8 7 6 6 5 5 5 5 5 5 4 2 1 1 0 1 1 1 1 2 2 3 3 3 4 4 4 7 7 7 8 12 17 9 7 7 9 11 14 10 8 6 7 7 7 7 7 7 8 9 9 9 9 9 10 10 11 11 12 12 11 12 11 11 11 11 11 11 11 10
6 8 9 9 8 9 9 9 9 10 10 11 10 10 10 9 9 8 8 7 6 6 5 5 5 5 4 3 3 2 2 1 1 0 1 1 1 1 2 3 3 4 4 5 7 6 7 10 13 9 7 7 8 7 10 13 15 9 6 6 7 6 7 6 7 7 7 8 9 9 9 9 9 9 10 10 10 11 11 10 11 10 11 11 11 11 11
5 5 7 7 7 8 9 9 10 10 12 13 11 10 10 9 9 9 8 8 7 6 6 6 5 5 5 5 4 3 3 2 1 1 1 0 1 1 3 3 4 4 4 5 6 4 7 9 9 6 6 7 8 7 9 12 15 7 7 6 6 6 7 6 6 6 6 6 7 7 7 8 9 10 9 8 9 9 10 11 10 10 10 10 10 11 10
5 6 7 8 8 9 9 9 10 11 11 11 11 11 10 10 10 9 9 8 7 7 6 6 6 5 5 5 4 4 4 3 2 2 1 1 1 2 3 4 3 3 4 5 4 4 6 10 8 5 5 6 7 7 7 10 11 6 7 6 6 6 6 7 6 6 6 6 7 7 7 7 7 7 8 7 8 8 8 8 9 9 9 9 10 9 8
5 6 8 9 9 9 9 10 11 11 11 11 11 10 11 11 10 10 9 9 8 8 7 6 6 5 4 4 4 3 4 3 3 2 1 3 3 2 1 2 3 2 4 4 5 4 4 6 7 6 6 6 6 8 7 9 7 6 6 6 6 6 6 7 7 7 7 7 7 7 7 6 7 7 7 7 8 8 8 8 8 9 9 9 9 8 8
5 7 9 9 9 9 10 10 11 11 11 11 11 11 11 11 10 10 9 9 8 8 7 7 2 1 3 4 4 4 4 4 3 2 1 1 1 2 1 3 2 3 5 6 6 4 3 3 5 6 7 7 5 10 12 8 5 5 5 6 6 6 6 6 6 6 6 6 7 7 7 7 7 7 7 7 7 7 7 7 7 7 7 8 8 8 8
7 8 9 9 9 10 10 11 12 12 12 11 11 11 11 11 9 9 9 9 9 8 8 7 7 4 4 5 5 5 4 4 4 3 3 2 1 1 2 3 2 5 3 2 3 2 3 4 5 5 8 8 7 12 13 4 5 5 5 5 5 5 6 6 6 6 6 6 7 7 7 7 7 7 7 7 7 7 7 7 7 7 7 7 8 8 8
7 8 8 9 9 10 11 11 11 11 12 11 10 11 12 10 10 10 9 9 9 9 8 8 7 7 7 6 6 5 5 5 4 4 4 4 4 3 1 1 3 4 1 2 2 3 3 4 5 7 8 10 11 12 7 5 4 5 5 5 5 5 5 5 6 6 6 6 6 6 6 7 7 7 7 7 7 7 7 7 7 7 7 7 7 7 7
7 8 9 10 11 11 12 12 13 14 12 11 11 11 11 11 10 10 10 10 9 9 8 7 7 7 6 6 5 4 3 3 3 3 4 4 4 4 5 4 2 2 3 5 0 3 4 4 5 8 8 10 11 12 4 4 4 5 4 5 5 5 5 5 5 5 6 5 5 5 6 6 6 6 6 7 6 6 6 6 7 7 7 7 7 7 8
8 8 9 11 12 12 12 12 12 11 11 12 11 11 11 11 11 10 10 10 10 9 9 8 7 7 7 6 5 4 3 3 3 2 1 2 2 4 5 3 3 4 2 6 1 2 5 4 3 5 8 9 12 8 3 4 4 4 4 4 5 4 5 5 5 5 5 5 5 5 5 5 6 6 6 6 6 6 6 6 6 6 7 7 7 7 7
8 8 10 11 11 11 11 10 11 11 12 11 11 10 10 11 11 10 10 10 9 9 9 8 8 7 7 6 6 5 5 4 4 4 3 3 4 5 7 6 6 2 4 1 3 3 5 3 3 5 7 8 11 3 3 3 4 4 4 4 4 4 4 4 4 5 5 5 5 5 6 5 5 5 5 5 6 6 6 6 6 6 6 6 6 7 7
8 9 10 10 10 11 11 10 11 11 12 12 11 10 11 11 11 10 10 10 9 9 8 8 7 7 7 7 6 4 3 4 4 5 4 4 4 5 5 4 5 6 5 6 6 6 4 1 2 5 6 9 6 3 3 4 3 4 4 4 4 5 4 4 4 4 4 5 4 5 5 5 5 6 6 6 6 6 6 6 6 6 6 6 6 6 7
7 8 9 9 10 11 11 11 11 11 11 11 11 9 11 11 11 10 10 10 10 9 9 9 8 8 7 7 6 5 4 2 2 1 6 5 5 5 5 8 7 5 6 2 3 4 4 0 1 4 8 9 2 3 3 4 4 4 4 4 4 4 4 5 4 4 4 5 5 5 5 5 5 5 5 5 5 5 5 6 6 6 6 5 5 6 7
7 7 8 9 10 10 10 10 10 11 11 11 11 9 10 10 10 10 10 10 10 9 8 8 8 8 7 7 6 5 4 4 4 3 4 5 5 4 5 5 5 3 4 0 3 3 7 5 6 4 4 2 3 2 3 3 4 4 4 3 3 4 5 4 4 4 4 4 4 4 4 5 5 5 5 5 5 5 5 5 5 5 4 4 5 5 5
7 8 9 9 10 10 13 13 13 12 11 11 11 10 10 10 10 10 10 10 9 10 9 8 8 8 6 7 7 6 6 6 5 5 5 5 5 5 4 5 6 5 4 3 2 2 3 3 1 1 0 2 3 3 3 3 3 3 3 3 3 2 3 2 3 4 5 4 4 4 4 4 5 4 4 5 4 5 5 4 4 4 5 5 4 5 5
8 7 8 8 9 10 11 11 11 11 11 11 11 10 10 10 9 9 9 12 10 10 10 9 9 9 8 8 8 7 7 6 6 6 5 6 6 5 6 4 5 5 4 4 3 2 1 4 4 2 3 1 2 3 5 2 1 3 3 3 3 4 4 3 3 3 3 2 3 4 3 3 3 4 4 4 4 4 4 4 4 4 4 5 5 5 5
Wind_Direction
273 278 283 287 280 263 259 261 266 257 235 236 243 252 267 285 279 292 317 315 300 304 317 329 331 334 330 329 330 336 340 335 339 343 342 341 341 341 343 341 337 338 338 338 339 335 332 329 327 326 324 323 322 320 315 309 311 315 318 316 315 315 307 246 253 240 248 241 240 239 224 210 206 212 218 218 217 214 216 216 215 203 194 191 189 198 200
285 281 276 280 261 251 248 256 264 258 241 238 247 259 259 250 254 272 286 294 298 306 317 326 330 327 319 319 324 331 343 340 343 343 343 340 342 343 343 340 337 336 335 337 339 335 334 331 328 328 326 325 325 323 319 316 318 320 322 317 316 319 310 264 228 240 229 245 260 253 239 222 213 208 203 206 208 212 210 209 210 199 177 201 203 203 196
288 293 327 278 239 253 268 267 262 254 240 237 242 257 258 258 262 266 272 283 293 310 352 324 319 312 317 322 327 336 342 345 345 342 342 343 342 342 342 338 336 335 333 334 338 338 335 333 331 329 327 324 323 321 322 323 320 321 319 319 317 317 317 298 267 188 230 234 219 246 262 245 227 214 207 203 210 209 211 209 210 200 203 199 196 191 197
285 213 234 185 254 268 275 272 261 245 229 227 232 246 245 243 259 282 292 283 287 328 347 325 313 317 323 329 333 334 338 345 346 342 344 343 342 342 341 338 336 336 333 332 334 333 332 330 331 330 327 325 322 323 322 320 320 319 317 315 314 316 315 308 286 185 228 243 249 222 223 237 236 225 212 211 217 217 208 205 203 203 205 206 198 195 198
287 23 247 296 292 292 269 251 241 238 226 221 230 245 248 245 261 265 265 285 323 328 323 315 318 322 324 331 338 332 335 345 346 344 345 341 340 342 341 338 336 335 333 329 327 328 326 329 331 329 326 324 323 321 317 314 316 316 315 316 318 317 314 312 312 231 208 227 238 256 270 259 244 235 226 216 222 223 215 203 202 208 211 210 208 200 198
287 302 317 295 289 277 289 58 303 193 204 213 234 251 255 258 231 251 280 294 305 302 307 314 317 321 324 327 328 328 335 338 341 342 343 343 340 341 341 339 337 335 333 330 325 326 325 329 331 327 327 326 322 317 313 315 315 320 321 321 320 318 318 317 317 322 192 221 242 248 247 240 251 262 244 231 223 220 218 208 204 204 203 209 212 210 206
280 305 301 288 270 271 66 63 58 108 184 251 261 262 260 265 253 249 259 268 279 297 307 311 312 313 315 320 317 332 349 343 341 341 342 344 342 341 342 339 338 336 333 326 326 326 332 336 333 331 330 330 324 321 320 321 327 326 325 322 319 324 328 330 328 329 334 206 255 273 262 253 242 245 257 240 223 219 218 204 203 203 202 206 207 208 209
272 272 256 247 288 87 245 267 177 97 186 250 268 269 258 251 246 249 253 264 286 299 304 307 315 321 313 306 306 9 349 357 345 342 340 344 343 344 343 341 342 339 334 328 327 325 331 336 334 335 333 329 327 323 321 324 327 325 324 323 325 331 329 328 331 334 334 328 210 219 245 244 246 240 233 242 247 232 229 225 214 205 205 207 211 213 211
271 285 280 275 299 297 262 224 218 200 199 205 235 284 295 258 236 234 246 271 288 299 308 313 315 320 312 302 316 38 5 355 346 339 338 342 342 343 343 342 339 337 334 331 331 330 333 335 336 338 332 331 328 324 328 332 329 331 330 329 330 328 323 324 326 327 328 324 324 291 243 238 246 252 250 240 242 237 226 217 217 219 214 210 206 209 210
239 283 289 288 290 291 116 167 96 191 127 21 229 294 285 228 210 199 250 281 302 309 313 314 322 320 309 315 340 29 1 348 343 340 337 339 341 342 345 340 336 333 332 336 335 335 335 335 337 339 336 333 330 332 336 332 334 335 333 331 329 323 320 321 320 321 321 320 316 313 303 281 236 230 246 263 273 255 245 232 222 215 213 213 212 213 216
256 263 270 272 281 282 49 173 146 139 148 176 217 259 275 108 179 178 267 285 307 316 314 319 321 318 320 322 333 6 346 337 343 338 338 340 340 343 346 344 340 335 337 337 338 338 338 337 337 339 342 340 338 339 341 340 337 337 337 334 327 322 317 314 315 315 314 314 313 309 304 298 289 267 225 220 224 237 255 253 242 230 221 216 216 216 221
256 266 264 271 259 273 134 158 161 160 156 176 222 280 295 162 182 236 287 301 316 319 317 320 315 319 316 321 330 339 330 335 334 339 338 339 340 344 345 343 341 333 336 333 337 348 344 335 332 337 340 342 341 341 342 342 343 337 335 331 325 319 316 312 310 309 308 306 305 305 301 299 297 289 278 261 239 217 221 244 251 244 230 223 219 219 218
256 246 264 273 275 267 255 229 194 172 166 206 257 271 47 208 299 281 304 306 315 319 313 321 315 326 325 315 316 321 325 330 333 335 334 335 341 345 347 343 338 339 337 335 339 346 340 334 339 338 340 339 341 342 341 343 343 337 330 326 323 321 316 313 308 306 307 302 301 298 295 293 293 289 279 263 255 256 244 230 226 235 233 228 226 226 224
256 265 264 265 269 304 142 161 165 160 181 234 266 59 247 321 295 300 304 303 312 318 314 316 316 317 318 316 314 317 328 332 332 332 334 334 338 344 346 345 347 345 337 338 340 341 347 348 344 348 345 342 343 340 339 341 339 332 330 327 323 321 319 317 315 311 308 304 299 293 291 291 287 283 277 270 261 251 248 249 238 232 231 231 228 227 226
256 255 263 270 274 131 158 135 156 185 233 316 12 307 312 294 312 311 305 305 320 313 313 319 316 315 317 317 314 321 326 329 334 334 336 337 339 341 344 345 352 345 337 338 339 342 350 351 343 348 350 345 346 342 341 339 334 332 332 331 326 321 319 318 317 313 308 306 300 291 286 285 281 277 275 273 263 251 241 235 237 239 241 239 231 226 228
263 252 242 241 300 117 157 169 214 187 235 297 313 306 289 314 296 298 303 307 327 322 312 314 315 315 314 312 318 321 323 328 330 334 337 336 338 339 343 343 345 338 334 338 339 341 349 354 346 347 352 345 344 344 342 337 332 332 335 335 332 327 322 318 315 311 308 301 297 291 285 278 273 269 270 270 263 248 240 235 230 228 225 230 230 223 220
242 258 282 338 46 154 181 204 280 297 275 268 280 282 284 293 302 310 296 315 324 319 314 311 312 313 319 317 319 318 323 324 328 334 336 336 339 338 341 342 344 337 339 337 336 341 347 357 351 348 351 351 345 342 340 337 340 339 338 337 336 331 328 323 319 314 307 299 290 286 281 274 268 266 262 257 255 250 244 238 235 231 224 223 222 224 225
268 268 269 280 257 235 221 226 262 282 274 254 255 264 273 279 297 301 301 319 315 318 317 312 312 318 323 317 318 319 321 322 327 333 334 335 339 339 340 343 345 335 336 337 341 342 345 355 353 349 347 345 339 335 333 337 339 338 337 336 335 333 330 326 322 317 308 299 288 277 269 263 260 260 258 250 248 245 239 235 235 244 241 234 224 219 222
278 268 238 243 262 257 241 253 259 258 265 270 248 249 256 275 287 293 292 303 316 314 315 308 313 316 319 316 315 319 320 324 327 331 333 334 339 342 339 341 338 336 340 342 345 343 344 350 351 348 346 345 338 331 334 334 338 338 336 338 334 332 330 328 324 319 309 300 294 284 270 259 250 244 241 241 241 247 242 240 239 241 239 243 237 225 231
254 265 273 276 269 281 264 244 258 262 253 250 245 249 259 269 273 279 291 270 271 306 304 320 318 313 312 315 319 322 324 325 326 330 332 334 339 343 341 337 336 336 341 342 342 341 342 345 347 345 348 345 342 337 336 340 343 343 339 341 336 332 328 324 320 311 305 291 280 268 261 259 250 235 229 229 235 242 269 269 250 246 242 242 244 246 247
272 271 272 272 276 266 262 261 250 261 273 254 236 233 232 233 250 255 234 245 291 297 301 309 306 305 312 316 322 322 323 322 325 329 331 337 338 342 342 337 335 338 336 339 338 339 339 341 341 342 345 344 345 340 339 341 346 345 341 338 335 333 328 322 318 312 300 292 276 262 249 240 236 352 357 340 293 95 43 16 25 18 324 359 360 352 323
265 267 277 278 267 261 249 238 236 237 248 258 253 229 230 236 246 253 248 253 261 288 301 302 303 306 311 321 327 324 324 324 327 328 332 334 336 341 344 330 330 334 338 339 338 339 338 339 337 339 341 343 346 345 344 345 346 345 342 338 336 335 333 329 320 313 300 283 250 233 230 227 134 72 54 50 43 57 63 52 61 57 58 52 13 350 354
269 279 287 280 271 273 275 282 261 249 252 246 243 241 241 239 240 247 238 261 283 293 308 307 302 308 320 318 325 322 325 327 328 331 330 331 334 336 335 332 339 341 339 340 339 339 339 337 336 339 340 343 348 348 349 348 345 344 344 341 339 338 340 331 323 318 311 313 243 202 211 210 129 105 84 58 58 67 72 66 61 58 54 50 44 41 33
274 282 286 278 267 265 270 252 247 268 254 246 250 248 243 242 238 213 221 243 278 299 311 291 303 301 309 318 323 321 323 327 330 335 335 329 330 327 325 334 337 337 339 340 341 338 337 337 338 340 341 347 349 347 348 349 346 350 352 346 345 342 335 331 331 339 324 348 6 218 208 160 116 114 105 98 76 59 64 66 63 58 54 50 45 42 39
262 268 278 277 270 266 261 269 277 271 256 247 254 254 246 235 201 192 216 222 238 288 305 311 300 304 312 316 321 321 322 324 330 343 317 318 336 331 336 339 342 340 338 335 334 336 337 336 337 341 341 346 348 347 347 349 348 354 356 353 351 347 339 338 342 354 360 9 20 21 34 46 67 94 106 104 96 90 70 70 68 61 53 47 46 44 41
247 256 266 273 270 262 265 265 256 245 234 228 236 250 199 192 182 192 207 222 242 257 289 296 297 310 319 315 320 324 319 321 340 318 318 344 344 344 348 345 341 336 332 332 332 338 337 334 337 342 342 346 348 346 345 349 353 360 359 358 353 351 350 351 353 359 7 11 18 23 28 37 45 49 44 48 63 72 78 67 66 65 58 48 39 41 42
243 250 259 263 251 250 237 240 253 224 213 213 224 219 186 173 163 198 187 204 228 259 270 284 287 292 293 317 318 311 316 310 308 324 343 347 352 348 343 338 337 334 332 336 336 344 335 336 343 346 349 350 347 346 347 350 355 2 2 3 1 357 358 0 4 2 3 13 19 25 31 37 39 45 48 48 49 49 49 52 56 49 44 43 39 35 38
252 244 231 245 255 258 249 225 233 238 208 203 205 201 184 172 180 189 199 206 211 212 226 215 238 256 296 341 321 310 308 333 349 343 343 360 353 344 340 337 333 334 340 342 343 346 342 346 347 350 355 351 348 348 351 353 356 4 6 7 7 7 5 7 10 12 15 15 19 25 24 31 38 44 48 47 47 45 46 50 51 50 44 37 37 30 32
242 242 233 239 253 260 278 281 198 208 209 199 202 197 179 182 192 204 208 216 216 224 240 208 204 234 274 307 313 323 319 322 334 343 350 358 353 347 342 339 333 335 347 349 351 350 347 349 350 353 355 350 347 350 351 352 357 8 11 11 10 8 9 10 6 13 19 21 23 30 34 36 36 43 47 52 52 49 47 50 54 50 45 35 28 25 26
241 234 230 238 244 245 235 233 238 230 211 193 194 193 191 194 201 207 213 207 206 233 232 206 215 219 246 275 309 332 331 330 332 344 350 355 357 354 349 344 333 347 354 359 355 349 348 350 351 356 352 347 348 349 351 352 359 9 17 19 17 13 9 8 15 18 22 22 24 30 34 33 33 32 36 40 50 56 45 44 50 49 44 40 38 35 24
243 220 226 241 245 239 235 238 235 223 206 196 196 196 197 203 210 213 214 207 206 227 211 219 216 216 219 252 303 329 327 319 332 347 354 358 357 359 354 354 360 357 357 356 350 349 349 349 352 354 348 346 349 352 351 351 354 6 16 20 21 14 7 6 18 21 22 21 22 27 27 32 30 32 33 30 35 43 40 34 51 53 48 44 42 36 24
233 216 224 230 234 232 232 231 226 212 202 195 196 200 198 200 206 214 211 209 211 217 209 210 210 216 213 218 286 304 312 320 325 353 349 0 3 1 360 356 10 354 353 355 352 351 352 349 352 348 345 347 351 355 354 350 350 4 11 17 25 21 17 14 20 18 21 26 25 27 25 26 32 31 34 35 30 31 26 33 49 52 49 44 41 34 19
230 229 228 224 221 222 227 219 212 205 197 195 199 201 198 199 207 208 209 203 194 196 214 222 214 190 190 207 247 294 317 310 294 327 355 360 7 0 0 357 353 359 0 1 355 357 359 355 348 342 343 345 354 356 357 350 351 2 7 15 25 32 35 28 22 25 33 34 33 30 30 30 32 35 38 38 40 39 38 44 48 51 52 49 45 36 28
228 235 248 242 219 218 215 211 204 205 198 198 197 195 194 193 196 196 191 190 200 203 210 211 193 185 191 202 220 288 308 296 269 20 10 357 359 355 356 348 353 346 9 7 5 9 3 357 353 343 340 345 356 360 359 353 349 1 7 14 23 35 35 30 29 34 35 36 35 34 40 40 40 37 36 40 41 43 43 43 44 48 51 52 46 40 30
235 243 246 252 241 230 229 217 199 198 191 189 189 191 189 185 187 190 177 190 197 204 194 193 189 190 189 194 212 229 294 333 352 350 3 351 353 349 350 345 352 349 10 36 16 13 357 4 360 347 333 345 357 7 6 353 343 359 4 13 25 26 40 44 42 40 39 40 41 42 43 40 39 36 37 39 41 44 46 45 43 44 44 40 34 30 32
235 240 243 241 239 231 223 219 203 191 184 186 184 183 182 181 185 178 174 194 183 181 180 188 188 186 192 200 203 202 239 1 353 350 338 350 338 338 345 358 359 360 358 47 27 7 353 11 353 331 315 352 355 8 14 355 342 354 9 9 23 20 25 36 49 50 45 43 44 43 44 48 50 45 43 44 43 43 44 44 43 44 45 41 35 30 30
240 239 239 237 230 220 213 208 194 186 183 182 180 179 179 178 185 176 174 178 178 179 181 181 187 192 200 195 187 162 164 39 355 347 2 330 327 330 3 2 13 4 357 23 15 357 359 3 336 309 318 8 0 7 15 355 347 337 8 15 24 24 28 37 30 40 49 47 48 50 45 46 47 45 43 46 45 45 45 46 46 47 46 45 43 39 35
237 229 224 219 209 205 205 195 184 178 174 172 174 174 177 175 178 173 176 172 172 172 178 185 192 193 184 171 188 192 159 151 178 299 278 337 339 345 47 24 19 13 18 18 349 348 8 344 316 325 15 5 6 3 10 353 334 330 23 13 21 26 28 34 41 32 27 39 36 38 43 49 49 49 50 48 49 46 47 48 48 49 48 47 45 43 42
226 219 218 204 194 192 187 178 177 174 170 169 168 170 171 173 170 169 170 171 166 163 173 183 182 187 182 195 198 177 174 168 174 225 250 306 10 11 61 42 43 27 23 352 327 3 7 343 326 349 7 11 359 9 7 354 331 350 15 19 21 30 23 32 33 45 44 39 32 34 39 26 38 45 40 42 47 51 52 51 48 47 50 47 45 44 42
214 203 195 185 183 176 171 169 170 168 169 168 166 166 166 170 172 173 169 167 159 168 177 176 184 190 191 198 199 188 169 170 190 210 223 243 238 204 164 113 73 56 26 330 330 29 351 310 324 10 7 10 13 5 1 342 321 7 14 22 21 28 29 25 28 34 36 34 44 36 44 47 36 31 36 31 36 38 34 38 56 59 53 52 49 47 37
209 194 182 183 176 170 170 165 164 165 165 167 169 167 168 173 170 172 172 168 163 171 181 180 187 191 198 194 194 176 156 168 197 202 214 239 231 227 194 94 78 65 33 8 4 335 344 1 11 357 13 356 35 3 349 334 347 25 21 25 23 24 28 27 29 28 31 33 34 34 37 37 42 42 37 38 37 35 39 38 28 30 31 35 42 39 35
201 188 182 177 170 171 166 162 160 163 167 169 168 166 169 170 171 175 170 169 164 173 176 185 150 199 181 178 169 170 176 183 180 190 209 288 328 292 158 101 82 61 15 303 248 249 1 16 27 23 6 350 3 360 327 312 9 22 33 32 29 30 29 29 33 33 34 36 35 38 33 36 38 39 37 42 38 38 36 35 37 34 34 34 33 31 33
193 189 184 176 167 165 163 164 168 168 166 167 167 169 168 169 171 173 171 171 170 175 179 179 148 162 186 186 178 190 187 180 191 183 181 149 120 5 3 73 87 74 343 313 348 13 30 26 16 29 2 343 339 329 304 337 27 28 35 38 35 32 40 36 31 35 35 35 40 40 36 34 38 38 36 36 39 36 32 35 35 34 32 29 31 28 29
197 189 181 172 165 164 165 167 170 169 171 170 170 167 169 171 176 177 176 176 178 180 185 178 175 183 189 186 189 197 187 184 192 188 197 167 163 152 179 65 75 91 318 311 57 36 52 27 35 359 337 334 323 316 320 37 23 40 35 37 32 41 39 41 42 38 39 39 37 38 43 39 39 42 40 35 37 36 35 34 35 36 31 31 30 31 27
201 196 185 175 167 168 174 177 177 179 177 166 166 170 174 176 179 181 181 182 184 182 188 187 183 183 184 184 194 201 195 179 192 184 203 191 190 151 132 143 143 141 93 301 319 69 55 33 16 343 339 328 320 308 333 35 31 40 34 40 41 41 44 43 44 44 44 42 44 45 46 44 48 41 50 51 40 41 33 35 40 39 39 36 29 30 31
206 200 187 175 176 181 183 182 180 178 168 166 169 172 179 182 183 184 187 188 185 186 190 191 188 187 187 182 180 175 176 185 176 200 275 345 24 97 101 75 90 79 353 280 66 100 90 95 357 347 333 318 311 294 37 23 33 37 39 42 50 44 45 46 47 51 48 44 43 38 41 52 53 49 44 44 47 50 51 34 39 43 40 40 40 35 35
208 202 194 189 187 184 180 181 178 174 168 172 177 178 183 185 186 188 191 193 192 187 190 191 192 187 184 185 179 182 185 183 176 179 187 147 121 109 100 97 102 132 250 251 57 64 50 84 32 348 318 317 298 335 32 29 36 34 41 41 39 47 45 48 44 54 54 56 52 67 63 50 49 61 60 61 56 48 50 46 44 44 46 41 44 44 41
210 208 201 195 188 178 176 174 174 180 183 189 191 186 179 183 186 191 189 192 192 192 190 191 190 184 181 181 185 194 205 198 188 170 173 166 149 144 173 181 126 115 113 122 115 106 106 45 1 319 317 297 283 59 38 43 31 46 43 49 37 37 30 40 38 50 55 55 42 46 44 52 59 57 52 51 53 50 48 45 48 45 41 40 40 38 39
212 214 203 192 182 173 176 180 184 189 196 196 198 189 173 178 182 187 188 192 194 193 192 190 187 181 180 181 180 187 180 206 279 144 147 166 160 161 124 104 123 172 226 205 139 127 116 155 345 318 298 283 353 47 45 52 49 51 49 38 49 42 36 38 29 32 49 46 50 45 53 56 52 53 61 55 55 55 52 55 53 44 42 39 46 42 43
205 205 197 193 184 179 183 189 197 199 200 198 201 185 167 172 180 187 188 191 193 192 193 188 185 180 180 172 184 182 170 168 159 138 147 159 159 155 143 161 150 186 298 326 139 136 139 191 225 247 302 29 57 29 50 50 65 43 54 64 61 73 59 52 72 41 44 55 49 52 59 58 65 64 57 58 54 51 54 54 66 76 70 48 45 40 37
203 206 210 203 201 199 198 201 201 200 200 197 197 178 169 185 192 186 186 185 184 187 198 190 187 181 179 177 178 177 166 171 164 162 169 164 169 152 162 150 149 166 175 207 188 186 163 176 99 122 166 75 74 54 41 43 71 84 60 62 58 61 97 85 57 58 46 38 55 58 49 66 60 52 58 61 56 58 61 58 47 45 39 44 35 35 40
219 213 213 210 209 209 208 208 210 210 205 196 193 177 181 192 190 180 177 177 188 188 192 187 187 182 180 175 174 171 172 170 159 167 170 164 166 166 155 165 168 162 191 206 167 164 131 110 110 65 328 324 85 110 133 194 86 85 83 79 81 83 55 35 64 79 82 83 78 81 65 44 56 80 69 63 63 66 62 57 52 55 47 44 49 40 36